Location: Clegg Observatory
(38.9178°N, 78.6069°W)
Time: 07:19:16
(UTC-05:00)

Daily predictions for brighter satellites

Satellite Brightness Start Highest point End
(mag) Time Altitude Azimuth Time Altitude Azimuth Time Altitude Azimuth
Cosmos 1725 Rocket 4.1 18:11:08 10° N 18:17:29 84° E 18:23:45 10° S
Cosmos 2333 Rocket 2.2 18:12:10 10° NNW 18:17:52 73° ENE 18:23:29 10° SSE
Cosmos 2082 4.1 18:18:13 10° S 18:23:25 41° ESE 18:28:40 10° NE
COSMOS 2428 3.6 18:18:26 10° NNW 18:24:01 56° WSW 18:29:35 10° S
ERS-2 3.4 18:23:40 10° ESE 18:26:31 21° ENE 18:29:22 10° NNE
Cosmos 2123 Rocket 4.4 18:22:23 10° SSW 18:28:33 70° W 18:34:42 10° N
Abrixas rocket 3.1 18:26:08 10° WNW 18:29:13 48° SW 18:32:18 10° SE
Envisat 4.4 18:30:35 10° ESE 18:33:50 17° ENE 18:37:05 10° NNE
Cosmos 1674 Rocket 4.2 18:31:07 10° NNE 18:35:01 31° ENE 18:38:52 10° SE
Okean 1-7 4.3 18:31:56 10° NNW 18:36:10 46° W 18:40:22 10° SSW
SL-8 R/B 4.1 18:31:41 10° SSW 18:36:13 45° SE 18:40:35 11° ENE
Cosmos 1633 3.8 18:34:53 10° SE 18:37:35 21° E 18:40:19 10° NE
USA 215 3.5 18:33:12 10° NE 18:39:36 55° SE 18:45:58 10° SSW
YAOGAN 1 3.7 18:37:06 10° S 18:41:17 49° W 18:45:31 10° NNW
Cosmos 1371 Rocket 4.3 18:37:39 10° NNW 18:42:56 77° WSW 18:48:13 10° SSE
SeaSat 1 3.4 18:39:18 10° ESE 18:43:22 26° NE 18:47:26 10° N
Cosmos 1980 3.7 18:38:05 10° NNW 18:43:48 76° ENE 18:49:28 10° SSE
EO 1 Del DPAF 3.1 18:40:23 10° NNE 18:44:13 71° ESE 18:48:01 10° S
NOSS 3-2 (C) 3.4 18:39:34 10° SSW 18:45:26 88° SE 18:51:57 10° NE
Aureole 3 4.4 18:40:47 10° S 18:46:59 54° E 18:51:57 10° NNE
NOSS 0 Rocket 4.1 18:41:34 10° NNW 18:47:47 80° WSW 18:53:59 10° SSE
Meteor 1-27 Rocket 4.5 18:42:17 10° NNW 18:48:04 61° W 18:53:53 10° S
Cosmos 1733 Rocket 2.9 18:44:33 10° S 18:48:51 77° E 18:53:10 10° N
HJ-1C 4.5 18:46:15 10° SE 18:49:05 25° ENE 18:51:56 10° NNE
FengYun 1-2 T 4.3 18:45:10 10° SSE 18:50:32 55° ENE 18:55:54 10° N
Resurs 01 Rocket 3.3 18:55:50 15° ENE 18:55:50 15° ENE 18:57:59 10° NNE
Okean 3 3.6 18:55:50 10° N 18:59:53 47° E 19:03:54 10° SSE
Shenzhou-11 Module 3.0 19:00:51 10° W 19:03:43 41° SSW 19:05:43 17° SE
Cosmos 1975 Rocket 4.3 19:05:01 10° NNE 19:07:57 21° ENE 19:07:57 21° ENE
SJ-6B 3.1 19:05:40 10° SE 19:09:11 41° ENE 19:12:47 10° N
DELTA 2 R/B (2) 4.2 19:07:51 10° W 19:09:22 30° SSW 19:09:22 30° SSW
SPOT 3 Rocket 4.0 19:04:23 10° S 19:09:31 64° WSW 19:14:43 10° NNW
DNEPR-1 R/B 4.4 19:06:39 10° SW 19:10:42 47° NW 19:14:54 10° NNE
USA 267 4.3 19:08:44 18° ENE 19:12:14 28° NNE 19:17:38 10° NNW
Cosmos 2056 Rocket 4.5 19:07:01 10° NNW 19:12:17 53° WSW 19:17:31 10° S
Cosmos 2219 Rocket 4.2 19:10:58 10° NW 19:15:50 30° WSW 19:20:41 10° SSW
CENTAUR R/B 2.4 19:12:08 10° SSW 19:17:54 62° ESE 19:24:31 10° NE
Cosmos 1452 Rocket 3.4 19:13:29 10° NNW 19:18:45 68° ENE 19:23:58 10° SSE
Meteor 1-14 Rocket 4.2 19:14:08 10° S 19:19:52 87° E 19:25:47 10° N
Okean 1 3.6 19:19:46 10° N 19:23:34 41° E 19:23:55 40° E
Cosmos 44 Rocket 3.7 19:19:28 10° NNW 19:24:19 45° NE 19:26:00 33° E
Tiangong 2 0.9 19:21:53 10° WNW 19:25:05 75° NNE 19:25:22 67° ENE
Cosmos 1048 Rocket 4.1 19:20:17 10° S 19:25:28 54° ESE 19:30:38 10° NNE
Cosmos 2227 Rocket 3.3 19:21:05 10° SW 19:26:28 44° WNW 19:31:52 10° N
FREGAT/IRIS 3.5 19:25:13 10° S 19:28:05 49° W 19:30:59 10° NNW
Cosmos 2237 Rocket 3.1 19:23:15 10° NW 19:28:39 49° WSW 19:34:01 10° S
Geosat 4.1 19:25:09 18° NE 19:28:41 51° ESE 19:33:33 10° S
Sich 1 Rocket 3.5 19:25:08 10° S 19:29:38 67° E 19:34:05 10° NNE
Cosmos 1464 Rocket 3.8 19:23:59 10° N 19:30:09 82° E 19:36:17 10° S
SL-16 R/B 2.1 19:25:31 10° NNW 19:31:12 69° ENE 19:35:31 17° SSE
H-2A R/B 4.3 19:29:09 10° SSW 19:32:48 37° W 19:36:28 10° NNW
Cosmos 1378 Rocket 3.5 19:30:30 10° N 19:34:55 88° ENE 19:39:21 10° S
Cosmos 1782 Rocket 3.5 19:33:13 10° S 19:37:36 61° E 19:41:59 10° NNE
Cosmos 158 Rocket 4.0 19:34:05 10° SSW 19:38:59 73° WNW 19:43:52 10° NNE
Meteor 1-20 Rocket 4.4 19:33:27 10° SSW 19:39:07 78° W 19:44:55 10° N
Iridium 4 Rocket 3.3 19:34:19 10° N 19:39:17 82° W 19:43:48 10° S
Cosmos 2297 Rocket 3.5 19:35:34 10° SW 19:40:49 39° WNW 19:46:08 10° N
Cosmos 1420 Rocket 3.9 19:36:04 10° NNW 19:41:23 88° ENE 19:45:52 15° SSE
CZ-2D R/B 3.3 19:43:08 22° S 19:45:33 80° WSW 19:49:28 10° NNW
Meteor 1-18 Rocket 4.3 19:40:48 10° NNW 19:46:25 76° W 19:51:57 10° S
Lacrosse 5 3.5 19:47:14 10° WNW 19:51:41 32° WSW 19:56:07 10° S
Cosmos 44 3.7 19:59:07 10° NW 20:04:08 64° WSW 20:05:51 40° S
Cosmos 2034 Rocket 4.2 19:57:46 10° N 20:04:09 74° W 20:10:28 10° S
Thor Agena Rocket 4.2 19:59:17 10° N 20:04:15 54° WNW 20:09:09 10° SSW
Meteor 1-19 Rocket 4.0 19:59:36 10° N 20:05:04 71° ENE 20:05:04 71° ENE
BREEZE-M DEB (TANK) 3.5 20:03:24 10° SW 20:21:35 - NE 20:05:46 59° SSW
Cosmos 1437 Rocket 3.8 20:06:52 10° SSW 20:09:55 43° WSW 20:09:55 43° WSW
Envisat 3.6 20:07:25 10° S 20:12:22 55° W 20:17:22 10° NNW
Meteor 2-4 Rocket 4.5 20:10:51 10° N 20:14:43 41° NNE 20:14:43 41° NNE
Cosmos 1269 Rocket 4.3 20:11:32 10° SSW 20:16:47 66° WNW 20:18:52 36° N
CZ-4C R/B 4.0 20:11:58 10° NNW 20:16:56 27° NNE 20:16:56 27° NNE
SeaSat 1 3.6 20:18:12 24° SSW 20:20:40 40° WSW 20:25:20 10° NW
USA 215 4.1 20:18:48 23° NNE 20:22:28 45° NNW 20:28:36 10° WSW
Cosmos 2346 Rocket 4.4 20:17:22 10° S 20:23:36 84° W 20:29:49 10° N
Cosmos 2227 4.4 20:19:14 10° SSW 20:23:59 63° SSW 20:23:59 63° SSW
Resurs 01 Rocket 3.3 20:33:23 30° NW 20:33:23 30° NW 20:35:51 10° NNW
USA 267 3.6 20:56:05 56° NNW 20:56:05 56° NNW 21:01:09 10° NW
CENTAUR R/B 4.3 21:03:55 10° W 21:09:08 27° NW 21:11:51 21° N
